Regional Weather Roundup
Issued by NWS

Home | Current Version | Previous Version | Text Only | Print | Product List | Glossary Off
Versions: 1 2 3 4 5 6 7 8 9 10 11 12 13 14 15 16 17 18 19 20 21 22 23 24 25 26 27 28 29 30 31 32 33 34 35 36 37 38 39 40 41 42 43 44 45 46 47 48 49 50

000
ASUS43 KLMK 311710
RWRKY
KENTUCKY REGIONAL WEATHER ROUNDUP
NATIONAL WEATHER SERVICE LOUISVILLE KY
1200 PM EST SAT JAN 31 2015

NOTE "FAIR" INDICATES FEW OR NO CLOUDS BELOW 12,000 FEET
WITH NO SIGNIFICANT WEATHER AND/OR OBSTRUCTIONS TO VISIBILITY.

KYZ001>023-026-027-061>063-070>075-311800-
WESTERN AND SOUTH CENTRAL KENTUCKY

CITY           SKY/WX    TMP DP  RH WIND       PRES   REMARKS
PADUCAH        PTSUNNY   41  25  53 VRB5      30.37F
HENDERSON      CLOUDY    39  25  56 SW6       30.39F WCI  35
OWENSBORO      CLOUDY    38  25  60 SW8       30.40F WCI  32
HOPKINSVILLE   PTSUNNY   41  22  46 E3        30.38F
BOWLING GREEN  PTSUNNY   37  24  59 CALM      30.41F
GLASGOW        CLOUDY    37  22  55 S5        30.40F WCI  33
$$

KYZ024-025-028>034-038-045-046-053-311800-
NORTH CENTRAL KENTUCKY

CITY           SKY/WX    TMP DP  RH WIND       PRES   REMARKS
LOUISVILLE/SDF CLOUDY    39  19  44 SW7       30.39F WCI  34
LOUISVILLE/LOU PTSUNNY   36  19  50 SW6       30.40F WCI  31
FORT KNOX      PTSUNNY   38  21  49 S6        30.37F WCI  34
$$

KYZ035>037-039>044-047>052-055>060-089>105-311800-
NORTHEAST KENTUCKY

CITY           SKY/WX    TMP DP  RH WIND       PRES   REMARKS
LEXINGTON      MOSUNNY   35  20  54 S6        30.38F WCI  30
COVINGTON      PTSUNNY   34  19  54 SW7       30.36F WCI  28
FRANKFORT      MOSUNNY   36  18  48 SW9       30.37F WCI  29
$$

KYZ054-064>069-076>088-106>120-311800-
SOUTHEAST KENTUCKY

CITY           SKY/WX    TMP DP  RH WIND       PRES   REMARKS
JACKSON        SUNNY     34  18  52 CALM      30.37F
LONDON         MOSUNNY   37  15  40 SE3       30.38F
SOMERSET       MOSUNNY   34  21  60 CALM      30.41F
MIDDLESBORO    PTSUNNY   33  19  55 CALM      30.40F
MONTICELLO     PTSUNNY   41  16  36 CALM      30.41F
$$



USA.gov is the U.S. government's official web portal to all federal, state and local government web resources and services.